Total_Precipitation_Accumulation
0.00 0.00 0.00 0.00 0.00 0.00 0.00 0.00 0.00 0.00 0.00 0.00 0.00 0.01 0.03 0.05 0.07 0.09 0.08 0.10 0.14 0.15 0.18 0.22 0.23 0.26 0.29 0.26 0.29 0.32 0.33 0.40 0.38 0.10 0.03 0.05 0.15 0.21 0.20 0.15 0.15 0.16 0.15
0.00 0.00 0.00 0.00 0.00 0.00 0.00 0.00 0.00 0.00 0.00 0.00 0.01 0.03 0.06 0.10 0.11 0.13 0.13 0.13 0.16 0.18 0.20 0.24 0.26 0.25 0.26 0.24 0.27 0.28 0.25 0.24 0.30 0.18 0.05 0.05 0.10 0.18 0.27 0.27 0.22 0.19 0.18
0.00 0.00 0.00 0.00 0.00 0.00 0.00 0.00 0.00 0.00 0.00 0.00 0.01 0.05 0.13 0.20 0.19 0.15 0.19 0.20 0.19 0.21 0.23 0.26 0.26 0.26 0.25 0.22 0.27 0.27 0.22 0.19 0.24 0.25 0.12 0.06 0.10 0.13 0.25 0.35 0.30 0.26 0.23
0.00 0.00 0.00 0.00 0.00 0.00 0.00 0.00 0.00 0.00 0.01 0.01 0.01 0.03 0.14 0.33 0.36 0.27 0.32 0.30 0.24 0.20 0.17 0.17 0.24 0.34 0.33 0.31 0.34 0.29 0.25 0.27 0.29 0.31 0.20 0.12 0.13 0.15 0.25 0.36 0.41 0.39 0.32
0.00 0.00 0.00 0.00 0.00 0.00 0.00 0.00 0.00 0.01 0.01 0.01 0.01 0.02 0.08 0.42 0.79 0.74 0.67 0.49 0.28 0.17 0.11 0.10 0.19 0.32 0.36 0.50 0.60 0.50 0.46 0.50 0.44 0.42 0.35 0.28 0.26 0.28 0.33 0.35 0.48 0.50 0.44
0.00 0.00 0.00 0.00 0.00 0.00 0.00 0.00 0.01 0.01 0.01 0.02 0.02 0.02 0.04 0.30 0.83 0.91 0.67 0.37 0.22 0.16 0.12 0.08 0.11 0.22 0.25 0.31 0.43 0.51 0.57 0.65 0.65 0.59 0.53 0.46 0.37 0.35 0.35 0.42 0.48 0.56 0.57
0.00 0.00 0.00 0.00 0.00 0.00 0.00 0.01 0.01 0.01 0.02 0.02 0.02 0.02 0.02 0.16 0.66 0.77 0.47 0.25 0.16 0.13 0.09 0.07 0.08 0.17 0.22 0.30 0.34 0.36 0.40 0.51 0.65 0.68 0.67 0.49 0.41 0.36 0.42 0.49 0.47 0.51 0.55
0.00 0.00 0.00 0.00 0.00 0.00 0.00 0.01 0.01 0.02 0.02 0.02 0.02 0.02 0.01 0.08 0.51 0.64 0.36 0.20 0.12 0.09 0.05 0.06 0.06 0.11 0.23 0.42 0.43 0.38 0.33 0.40 0.58 0.72 0.89 0.76 0.57 0.52 0.65 0.75 0.73 0.60 0.49
0.00 0.00 0.00 0.00 0.00 0.00 0.01 0.01 0.02 0.03 0.02 0.02 0.02 0.01 0.01 0.02 0.30 0.54 0.35 0.18 0.10 0.07 0.03 0.04 0.06 0.10 0.22 0.38 0.41 0.32 0.22 0.24 0.30 0.48 0.68 0.77 0.70 0.68 0.78 0.97 0.98 0.79 0.63
0.00 0.00 0.00 0.00 0.00 0.01 0.01 0.02 0.02 0.02 0.02 0.02 0.02 0.01 0.01 0.01 0.14 0.38 0.39 0.21 0.10 0.06 0.05 0.03 0.07 0.16 0.24 0.32 0.32 0.29 0.33 0.30 0.25 0.25 0.29 0.41 0.52 0.60 0.74 0.97 1.13 0.98 0.76
0.00 0.00 0.00 0.00 0.00 0.01 0.02 0.02 0.02 0.03 0.03 0.02 0.02 0.01 0.01 0.01 0.05 0.20 0.37 0.29 0.17 0.10 0.08 0.06 0.05 0.15 0.22 0.24 0.26 0.29 0.45 0.39 0.24 0.22 0.22 0.27 0.33 0.45 0.61 0.84 1.09 1.15 0.96
0.00 0.00 0.00 0.00 0.01 0.02 0.03 0.03 0.03 0.03 0.03 0.03 0.02 0.02 0.01 0.01 0.05 0.15 0.26 0.25 0.22 0.13 0.09 0.06 0.07 0.12 0.14 0.16 0.20 0.29 0.30 0.26 0.26 0.23 0.20 0.22 0.29 0.38 0.48 0.65 0.89 1.05 1.05
0.00 0.00 0.00 0.01 0.01 0.03 0.03 0.04 0.04 0.04 0.06 0.04 0.04 0.03 0.02 0.01 0.07 0.16 0.15 0.13 0.18 0.15 0.09 0.08 0.09 0.10 0.10 0.09 0.14 0.21 0.23 0.27 0.35 0.31 0.23 0.23 0.29 0.39 0.44 0.49 0.63 0.88 1.02
0.00 0.00 0.01 0.01 0.02 0.03 0.04 0.04 0.05 0.08 0.15 0.11 0.07 0.05 0.04 0.05 0.19 0.29 0.17 0.09 0.11 0.16 0.16 0.12 0.10 0.10 0.10 0.08 0.07 0.09 0.14 0.23 0.31 0.31 0.25 0.21 0.21 0.27 0.38 0.49 0.56 0.73 0.93
0.00 0.01 0.01 0.02 0.03 0.04 0.04 0.04 0.06 0.07 0.16 0.18 0.13 0.13 0.13 0.19 0.31 0.33 0.23 0.16 0.14 0.16 0.22 0.24 0.18 0.14 0.15 0.13 0.09 0.06 0.07 0.12 0.17 0.18 0.20 0.21 0.21 0.23 0.30 0.42 0.58 0.72 0.88
0.00 0.01 0.02 0.03 0.04 0.04 0.05 0.04 0.05 0.05 0.08 0.08 0.10 0.13 0.12 0.20 0.26 0.22 0.20 0.17 0.17 0.18 0.26 0.29 0.19 0.13 0.12 0.12 0.11 0.08 0.07 0.07 0.08 0.11 0.15 0.19 0.23 0.26 0.29 0.34 0.47 0.66 0.85
0.00 0.01 0.02 0.03 0.04 0.04 0.04 0.05 0.06 0.04 0.03 0.04 0.05 0.08 0.11 0.15 0.16 0.17 0.18 0.15 0.16 0.19 0.25 0.20 0.13 0.11 0.10 0.09 0.09 0.09 0.07 0.06 0.07 0.09 0.10 0.13 0.18 0.22 0.25 0.29 0.37 0.52 0.73
0.01 0.02 0.03 0.04 0.04 0.05 0.05 0.06 0.07 0.08 0.07 0.04 0.03 0.04 0.08 0.11 0.13 0.14 0.16 0.19 0.19 0.17 0.19 0.15 0.11 0.10 0.09 0.10 0.10 0.09 0.08 0.07 0.08 0.07 0.07 0.08 0.12 0.17 0.21 0.25 0.32 0.45 0.62
0.01 0.02 0.03 0.04 0.05 0.05 0.05 0.06 0.07 0.08 0.07 0.06 0.04 0.04 0.07 0.10 0.11 0.13 0.17 0.24 0.19 0.14 0.12 0.11 0.10 0.10 0.10 0.10 0.10 0.09 0.09 0.08 0.06 0.06 0.06 0.06 0.08 0.11 0.16 0.20 0.26 0.36 0.50
0.01 0.02 0.03 0.04 0.05 0.05 0.06 0.08 0.10 0.10 0.09 0.08 0.08 0.09 0.17 0.22 0.21 0.18 0.18 0.20 0.17 0.12 0.10 0.10 0.09 0.09 0.10 0.10 0.10 0.09 0.09 0.07 0.06 0.05 0.05 0.05 0.05 0.07 0.11 0.15 0.21 0.29 0.39
0.01 0.02 0.04 0.05 0.06 0.07 0.09 0.11 0.12 0.13 0.13 0.12 0.10 0.11 0.24 0.32 0.25 0.18 0.17 0.17 0.16 0.14 0.12 0.11 0.10 0.09 0.09 0.09 0.09 0.09 0.08 0.07 0.05 0.05 0.04 0.04 0.04 0.05 0.07 0.11 0.17 0.23 0.32
0.01 0.02 0.04 0.06 0.08 0.09 0.11 0.12 0.14 0.16 0.15 0.15 0.13 0.12 0.16 0.23 0.23 0.21 0.17 0.15 0.14 0.14 0.14 0.14 0.12 0.11 0.12 0.13 0.13 0.11 0.09 0.07 0.06 0.05 0.04 0.04 0.04 0.04 0.05 0.08 0.11 0.17 0.25
0.02 0.04 0.07 0.08 0.09 0.11 0.13 0.13 0.15 0.17 0.18 0.17 0.17 0.16 0.17 0.19 0.19 0.20 0.19 0.16 0.15 0.14 0.14 0.15 0.13 0.11 0.11 0.12 0.13 0.15 0.14 0.11 0.08 0.07 0.06 0.05 0.04 0.04 0.05 0.07 0.10 0.14 0.21
0.05 0.08 0.10 0.11 0.12 0.14 0.16 0.17 0.17 0.19 0.20 0.20 0.19 0.17 0.17 0.17 0.17 0.17 0.16 0.17 0.17 0.15 0.15 0.16 0.14 0.13 0.13 0.13 0.12 0.14 0.14 0.12 0.10 0.09 0.08 0.08 0.07 0.06 0.06 0.08 0.09 0.12 0.18
0.07 0.10 0.12 0.15 0.18 0.20 0.22 0.23 0.22 0.21 0.21 0.21 0.20 0.19 0.18 0.17 0.16 0.14 0.13 0.14 0.14 0.13 0.14 0.16 0.16 0.17 0.16 0.16 0.16 0.16 0.15 0.12 0.11 0.11 0.11 0.09 0.08 0.07 0.08 0.08 0.09 0.11 0.15
0.08 0.11 0.15 0.19 0.23 0.26 0.29 0.30 0.26 0.23 0.24 0.23 0.21 0.20 0.19 0.18 0.16 0.14 0.13 0.14 0.14 0.13 0.13 0.14 0.16 0.19 0.18 0.18 0.18 0.17 0.16 0.13 0.12 0.11 0.10 0.08 0.07 0.06 0.07 0.09 0.09 0.10 0.13